This is the latest recevied weather packets stored in our database for station/object N6DZK. If no packets are shown the sender has not sent any weather packets the latest 10 day(s).
| Time | Temp. | Humidity | Pressure | Rain* | Wind** | Luminosity | Snow |
|---|---|---|---|---|---|---|---|
| 1777417672 | 25° C | 35% | 1017.2 hPa | 0 mm | - | 686 W/m² | - |
| 1777417367 | 24.44° C | 37% | 1017.1 hPa | 0 mm | - | 708 W/m² | - |
| 1777417064 | 25° C | 35% | 1017.3 hPa | 0 mm | - | 722 W/m² | - |
| 1777416760 | 25° C | 36% | 1017.3 hPa | 0 mm | - | 751 W/m² | - |
| 1777416456 | 25.56° C | 35% | 1017.4 hPa | 0 mm | - | 250 W/m² | - |
| 1777416151 | 25.56° C | 34% | 1017.5 hPa | 0 mm | - | 793 W/m² | - |
| 1777415846 | 25° C | 35% | 1017.4 hPa | 0 mm | - | 796 W/m² | - |
| 1777415541 | 25° C | 33% | 1017.4 hPa | 0 mm | - | 798 W/m² | - |
| 1777415238 | 25.56° C | 34% | 1017.5 hPa | 0 mm | - | 818 W/m² | - |
| 1777414933 | 25° C | 35% | 1017.5 hPa | 0 mm | - | 818 W/m² | - |
| 1777414633 | 25° C | 34% | 1017.6 hPa | 0 mm | - | 833 W/m² | - |
| 1777414328 | 25° C | 35% | 1017.5 hPa | 0 mm | - | 847 W/m² | - |
| 1777414022 | 25.56° C | 33% | 1017.7 hPa | 0 mm | - | 857 W/m² | - |
| 1777413717 | 26.11° C | 33% | 1017.8 hPa | 0 mm | - | 876 W/m² | - |
| 1777413414 | 25.56° C | 33% | 1017.8 hPa | 0 mm | - | 874 W/m² | - |
| 1777413110 | 25.56° C | 34% | 1017.8 hPa | 0 mm | - | 905 W/m² | - |
| 1777412805 | 25° C | 33% | 1018.1 hPa | 0 mm | - | 910 W/m² | - |
| 1777412505 | 25.56° C | 32% | 1018.2 hPa | 0 mm | - | 911 W/m² | - |
| 1777412202 | 25° C | 30% | 1018.3 hPa | 0 mm | - | 944 W/m² | - |
| 1777411899 | 24.44° C | 30% | 1018.4 hPa | 0 mm | - | 950 W/m² | - |
| 1777411598 | 23.89° C | 30% | 1018.6 hPa | 0 mm | - | 974 W/m² | - |
| 1777411293 | 24.44° C | 33% | 1018.5 hPa | 0 mm | - | 975 W/m² | - |
| 1777410992 | 23.33° C | 34% | 1018.6 hPa | 0 mm | - | 992 W/m² | - |
| 1777410692 | 22.78° C | 38% | 1018.7 hPa | 0 mm | - | 994 W/m² | - |
| 1777410387 | 23.33° C | 35% | 1018.6 hPa | 0 mm | - | 1001 W/m² | - |
* Rain latest hour (hover to see other rain measurements)
** Current wind speed in m/s (hover to see current wind gust speed)